Home > Weather > Bochum > Past weeks

Flag for Germany Past Weather in Bochum, North Rhine-Westphalia, Germany — Yesterday and Last 2 Weeks

Now
70 °F

Scattered clouds.


Feels Like: 70 °F
Forecast: 59 / 71 °F
Wind: 14 mph from Southwest

Location: Dortmund / Wickede

Current Time: Jul 29, 2016 at 6:01:07 PM

Latest Report: Jul 29, 2016 at 5:20 PM


Visibility: N/A

Pressure: 29.86 "Hg

Humidity: 57%

Dew Point: 54 °F

Location of BochumLocation

Past Weather in Bochum — Graph

°F

Bochum Temperature Yesterday

Maximum temperature yesterday: 70 °F (at 5:20 PM)
Minimum temperature yesterday: 61 °F (at 5:20 AM)
Average temperature yesterday: 65 °F

High & Low Weather Summary for the Past Weeks

 TemperatureHumidityPressure
High91 °F (Jul 20, 3:20 PM)88% (Jul 18, 5:20 AM)30.30 "Hg (Jul 18, 5:20 AM)
Low54 °F (Jul 15, 5:20 AM)20% (Jul 20, 5:20 PM)29.86 "Hg (Jul 20, 6:20 PM)
Average70 °F62%30.08 "Hg
* Reported Jul 14 4:20 PM — Jul 29 4:50 PM, Bochum, Weather by CustomWeather, © 2016

Note: Actual official high and low records may vary slightly from our data, if they occured in-between our weather recording intervals... More about our weather records

Advertising

Bochum Weather History for the Previous 24 Hours

Scroll right to see more
 ConditionsComfort  
Time TempWeatherWind HumidityBarometerVisibility
4:50 PM
Fri, Jul 29
72 °FSunny.13 mph57%29.86 "Hg10 mi
4:20 PM70 °FPassing clouds.14 mph60%29.86 "HgN/A
3:50 PM72 °FPartly sunny.13 mph57%29.89 "HgN/A
3:20 PM72 °FPartly sunny.13 mph57%29.89 "HgN/A
2:50 PM72 °FScattered clouds.12 mph61%29.89 "HgN/A
2:20 PM70 °FBroken clouds.13 mph64%29.89 "HgN/A
1:50 PM68 °FDrizzle. Partly sunny.14 mph69%29.89 "HgN/A
1:20 PM66 °FBroken clouds.14 mph73%29.89 "HgN/A
12:50 PM64 °FDrizzle. Broken clouds.13 mph78%29.92 "Hg6 mi
12:20 PM66 °FBroken clouds.12 mph73%29.92 "HgN/A
11:50 AM64 °FDrizzle. Broken clouds.13 mph78%29.92 "Hg5 mi
11:20 AM66 °FPartly sunny.13 mph68%29.92 "HgN/A
10:50 AM66 °FBroken clouds.12 mph68%29.92 "HgN/A
10:20 AM66 °FPartly sunny.10 mph68%29.92 "HgN/A
9:50 AM66 °FScattered clouds.12 mph73%29.92 "HgN/A
9:20 AM64 °FScattered clouds.10 mph73%29.92 "Hg6 mi
8:50 AM63 °FScattered clouds.8 mph77%29.92 "Hg6 mi
8:20 AM61 °FPartly sunny.9 mph83%29.92 "Hg6 mi
7:50 AM61 °FPartly sunny.9 mph83%29.92 "Hg5 mi
7:20 AM59 °FDrizzle. Partly sunny.8 mph88%29.92 "Hg6 mi
6:50 AM59 °FPartly sunny.9 mph82%29.92 "Hg5 mi
6:20 AM59 °FDrizzle. Low clouds.8 mph82%29.92 "Hg4 mi
5:50 AM59 °FLight rain. Fog.12 mph82%29.92 "Hg2 mi
5:20 AM59 °FPassing clouds.8 mph82%29.92 "HgN/A
1:20 AM63 °FPassing clouds.6 mph77%29.95 "HgN/A
12:50 AM63 °FPassing clouds.5 mph77%29.95 "HgN/A
12:20 AM63 °FPassing clouds.6 mph77%29.95 "HgN/A
11:50 PM
Thu, Jul 28
64 °FClear.7 mph73%29.95 "Hg10 mi
11:20 PM64 °FClear.9 mph78%29.92 "Hg10 mi
10:50 PM64 °FPassing clouds.10 mph78%29.92 "HgN/A
10:20 PM64 °FScattered clouds.9 mph83%29.92 "HgN/A
9:50 PM64 °FSunny.9 mph83%29.92 "Hg10 mi
9:20 PM66 °FSunny.10 mph78%29.92 "Hg10 mi
8:50 PM68 °FScattered clouds.8 mph73%29.92 "HgN/A
8:20 PM68 °FPassing clouds.8 mph73%29.92 "HgN/A
7:50 PM68 °FSunny.10 mph73%29.92 "Hg10 mi
7:20 PM68 °FSunny.10 mph73%29.92 "Hg10 mi
6:50 PM70 °FScattered clouds.10 mph64%29.92 "HgN/A
6:20 PM70 °FPassing clouds.12 mph69%29.92 "HgN/A
Weather by CustomWeather, © 2016

See weather overviewHow to use our weather pages